Notices

What's New in latest Release from April 7th, 2021:

- Updated Glossary, including Speed of Maximum Gust, and Total Hourly Precipitation

- Updated national and regional climate services offices contacts and prices information

- Addition of station inventory lists for 1981-2010, 1971-2000, and 1961-1990 Normals.

If you haven't already, please take our survey and provide feedback about our website: https://eccc.sondage-survey.ca/f/LanguageSelection.aspx?s=442ca660-fcf1-47c0-95a9-59707d6fd709

Hourly Data Report for October 20, 2019

PINAWA
MANITOBA
Current Station Operator: ECCC - MSC

50°10'38.020" N
96°03'53.000" W
268.00 m
503B1ER
71448
WEA

Download Data

Hourly Data (October 2019)
Hourly Data Report for October 20, 2019
TIME
LST
Temp Definition
°C
Dew Point Definition
°C
Rel Hum Definition
%
Precip. Amount Definition
mm

Wind Dir Definition
10's deg

Wind Spd Definition
km/h
Visibility Definition
km
Stn Press Definition
kPa
Hmdx Definition


Wind Chill Definition


Weather Definition


00:00 4.7 LegendMM LegendMM LegendMM 16 7   97.09     LegendNANA
01:00 4.6 LegendMM LegendMM LegendMM 17 7   97.16     LegendNANA
02:00 4.5 LegendMM LegendMM LegendMM 16 6   97.20     LegendNANA
03:00 4.3 LegendMM LegendMM LegendMM 17 4   97.21     LegendNANA
04:00 4.5 LegendMM LegendMM LegendMM 15 4   97.27     LegendNANA
05:00 4.4 LegendMM LegendMM LegendMM 17 7   97.33     LegendNANA
06:00 3.5 LegendMM LegendMM LegendMM 16 5   97.34     LegendNANA
07:00 2.5 LegendMM LegendMM LegendMM 15 4   97.39     LegendNANA
08:00 3.8 LegendMM LegendMM LegendMM 19 5   97.47     LegendNANA
09:00 5.9 LegendMM LegendMM LegendMM 17 5   97.52     LegendNANA
10:00 8.0 LegendMM LegendMM LegendMM 16 6   97.54     LegendNANA
11:00 10.2 LegendMM LegendMM LegendMM 16 5   97.52     LegendNANA
12:00 12.1 LegendMM LegendMM LegendMM 16 7   97.55     LegendNANA
13:00 14.1 LegendMM LegendMM LegendMM 20 5   97.55     LegendNANA
14:00 14.8 LegendMM LegendMM LegendMM 21 6   97.57     LegendNANA
15:00 14.2 LegendMM LegendMM LegendMM 25 6   97.64     LegendNANA
16:00 12.7 LegendMM LegendMM LegendMM 25 5   97.69     LegendNANA
17:00 11.3 LegendMM LegendMM LegendMM 24 4   97.73     LegendNANA
18:00 10.0 LegendMM LegendMM LegendMM 25 4   97.77     LegendNANA
19:00 7.9 LegendMM LegendMM LegendMM 22 2   97.81     LegendNANA
20:00 6.4 LegendMM LegendMM LegendMM 20 1   97.81     LegendNANA
21:00 7.4 LegendMM LegendMM LegendMM 21 2   97.84     LegendNANA
22:00 5.6 LegendMM LegendMM LegendMM 0 1   97.86     LegendNANA
23:00 4.4 LegendMM LegendMM LegendMM 11 2   97.88     LegendNANA

Notes on Data Quality.

Legend

  • E = Estimated
  • M = Missing
  • NA = Not Available*
  • [empty] = Indicates an unobserved value
Date modified: